Time,TemperatureF,DewpointF,PressureIn,WindDirection,WindDirectionDegrees,WindSpeedMPH,WindSpeedGustMPH,Humidity,HourlyPrecipIn,Conditions,Clouds,dailyrainin,SolarRadiationWatts/m^2,SoftwareType,DateUTC
2013-05-02 00:01:00,29.0,13.0,-100.00,NE,52,1.0,5.0,50,0.00,,,0.45,433.000000,,2013-05-02 00:01:00,
2013-05-02 00:11:00,29.0,13.0,-100.00,NE,52,1.0,5.0,50,0.00,,,0.45,433.000000,,2013-05-02 00:11:00,
2013-05-02 00:21:00,29.0,13.0,-100.00,NE,52,1.0,5.0,50,0.00,,,0.45,433.000000,,2013-05-02 00:21:00,
2013-05-02 00:32:00,29.0,13.0,-100.00,NE,52,1.0,5.0,50,0.00,,,0.45,433.000000,,2013-05-02 00:32:00,
2013-05-02 00:40:00,28.0,16.0,-100.00,NW,324,0.0,3.0,60,0.00,,,0.45,240.000000,,2013-05-02 00:40:00,
2013-05-02 01:01:00,28.0,16.0,-100.00,NW,324,0.0,3.0,60,0.00,,,0.45,240.000000,,2013-05-02 01:01:00,
2013-05-02 01:11:00,28.0,16.0,-100.00,NW,324,0.0,3.0,60,0.00,,,0.45,240.000000,,2013-05-02 01:11:00,
2013-05-02 01:21:00,28.0,16.0,-100.00,NW,324,0.0,3.0,60,0.00,,,0.45,240.000000,,2013-05-02 01:21:00,
2013-05-02 01:32:00,28.0,16.0,-100.00,NW,324,0.0,3.0,60,0.00,,,0.45,240.000000,,2013-05-02 01:32:00,
2013-05-02 01:40:00,24.0,13.0,-100.00,SSW,194,2.0,5.0,63,0.00,,,0.45,127.000000,,2013-05-02 01:40:00,
2013-05-02 02:01:00,24.0,13.0,-100.00,SSW,194,2.0,5.0,63,0.00,,,0.45,127.000000,,2013-05-02 02:01:00,
2013-05-02 02:11:00,24.0,13.0,-100.00,SSW,194,2.0,5.0,63,0.00,,,0.45,127.000000,,2013-05-02 02:11:00,
2013-05-02 02:21:00,24.0,13.0,-100.00,SSW,194,2.0,5.0,63,0.00,,,0.45,127.000000,,2013-05-02 02:21:00,
2013-05-02 02:32:00,24.0,13.0,-100.00,SSW,194,2.0,5.0,63,0.00,,,0.45,127.000000,,2013-05-02 02:32:00,
2013-05-02 02:40:00,18.0,13.0,-100.00,South,178,4.0,5.0,81,0.00,,,0.45,11.000000,,2013-05-02 02:40:00,
2013-05-02 03:01:00,18.0,13.0,-100.00,South,178,4.0,5.0,81,0.00,,,0.45,11.000000,,2013-05-02 03:01:00,
2013-05-02 03:11:00,18.0,13.0,-100.00,South,178,4.0,5.0,81,0.00,,,0.45,11.000000,,2013-05-02 03:11:00,
2013-05-02 03:22:00,18.0,13.0,-100.00,South,178,4.0,5.0,81,0.00,,,0.45,11.000000,,2013-05-02 03:22:00,
2013-05-02 03:32:00,18.0,13.0,-100.00,South,178,4.0,5.0,81,0.00,,,0.45,11.000000,,2013-05-02 03:32:00,
2013-05-02 03:40:00,18.0,14.0,-100.00,SSW,200,3.0,5.0,84,0.00,,,0.45,0.000000,,2013-05-02 03:40:00,
2013-05-02 04:03:00,18.0,14.0,-100.00,SSW,200,3.0,5.0,84,0.00,,,0.45,0.000000,,2013-05-02 04:03:00,
2013-05-02 04:12:00,18.0,14.0,-100.00,SSW,200,3.0,5.0,84,0.00,,,0.45,0.000000,,2013-05-02 04:12:00,
2013-05-02 04:22:00,18.0,14.0,-100.00,SSW,200,3.0,5.0,84,0.00,,,0.45,0.000000,,2013-05-02 04:22:00,
2013-05-02 04:33:00,18.0,14.0,-100.00,SSW,200,3.0,5.0,84,0.00,,,0.45,0.000000,,2013-05-02 04:33:00,
2013-05-02 04:40:00,18.0,13.0,-100.00,SW,221,7.0,10.0,81,0.00,,,0.45,0.000000,,2013-05-02 04:40:00,
2013-05-02 05:02:00,18.0,13.0,-100.00,SW,221,7.0,10.0,81,0.00,,,0.45,0.000000,,2013-05-02 05:02:00,
2013-05-02 05:12:00,18.0,13.0,-100.00,SW,221,7.0,10.0,81,0.00,,,0.45,0.000000,,2013-05-02 05:12:00,
2013-05-02 05:22:00,18.0,13.0,-100.00,SW,221,7.0,10.0,81,0.00,,,0.45,0.000000,,2013-05-02 05:22:00,
2013-05-02 05:32:00,18.0,13.0,-100.00,SW,221,7.0,10.0,81,0.00,,,0.45,0.000000,,2013-05-02 05:32:00,
2013-05-02 05:40:00,18.0,13.0,-100.00,SW,218,7.0,13.0,79,0.00,,,0.45,0.000000,,2013-05-02 05:40:00,
2013-05-02 06:01:00,18.0,13.0,-100.00,SW,218,7.0,13.0,79,0.00,,,0.45,0.000000,,2013-05-02 06:01:00,
2013-05-02 06:12:00,18.0,13.0,-100.00,SW,218,7.0,13.0,79,0.00,,,0.45,0.000000,,2013-05-02 06:12:00,
2013-05-02 06:21:00,18.0,13.0,-100.00,SW,218,7.0,13.0,79,0.00,,,0.45,0.000000,,2013-05-02 06:21:00,
2013-05-02 06:31:00,18.0,13.0,-100.00,SW,218,7.0,13.0,79,0.00,,,0.45,0.000000,,2013-05-02 06:31:00,
2013-05-02 06:40:00,17.0,11.0,-100.00,West,262,4.0,10.0,78,0.00,,,0.45,0.000000,,2013-05-02 06:40:00,
2013-05-02 07:02:00,17.0,11.0,-100.00,West,262,4.0,10.0,78,0.00,,,0.45,0.000000,,2013-05-02 07:02:00,
2013-05-02 07:11:00,17.0,11.0,-100.00,West,262,4.0,10.0,78,0.00,,,0.45,0.000000,,2013-05-02 07:11:00,
2013-05-02 07:21:00,17.0,11.0,-100.00,West,262,4.0,10.0,78,0.00,,,0.45,0.000000,,2013-05-02 07:21:00,
2013-05-02 07:31:00,17.0,11.0,-100.00,West,262,4.0,10.0,78,0.00,,,0.45,0.000000,,2013-05-02 07:31:00,
2013-05-02 07:40:00,14.0,10.0,-100.00,WNW,293,6.0,12.0,84,0.00,,,0.45,0.000000,,2013-05-02 07:40:00,
2013-05-02 08:02:00,14.0,10.0,-100.00,WNW,293,6.0,12.0,84,0.00,,,0.45,0.000000,,2013-05-02 08:02:00,
2013-05-02 08:11:00,14.0,10.0,-100.00,WNW,293,6.0,12.0,84,0.00,,,0.45,0.000000,,2013-05-02 08:11:00,
2013-05-02 08:21:00,14.0,10.0,-100.00,WNW,293,6.0,12.0,84,0.00,,,0.45,0.000000,,2013-05-02 08:21:00,
2013-05-02 08:32:00,14.0,10.0,-100.00,WNW,293,6.0,12.0,84,0.00,,,0.45,0.000000,,2013-05-02 08:32:00,
2013-05-02 08:40:00,16.0,10.0,-100.00,WNW,291,7.0,13.0,77,0.00,,,0.45,0.000000,,2013-05-02 08:40:00,
2013-05-02 09:02:00,16.0,10.0,-100.00,WNW,291,7.0,13.0,77,0.00,,,0.45,0.000000,,2013-05-02 09:02:00,
2013-05-02 09:11:00,16.0,10.0,-100.00,WNW,291,7.0,13.0,77,0.00,,,0.45,0.000000,,2013-05-02 09:11:00,
2013-05-02 09:21:00,16.0,10.0,-100.00,WNW,291,7.0,13.0,77,0.00,,,0.45,0.000000,,2013-05-02 09:21:00,
2013-05-02 09:32:00,16.0,10.0,-100.00,WNW,291,7.0,13.0,77,0.00,,,0.45,0.000000,,2013-05-02 09:32:00,
2013-05-02 09:40:00,17.0,10.0,-100.00,West,270,7.0,13.0,72,0.00,,,-99.99,0.000000,,2013-05-02 09:40:00,
2013-05-02 10:02:00,17.0,10.0,-100.00,West,270,7.0,13.0,72,0.00,,,-99.99,0.000000,,2013-05-02 10:02:00,
2013-05-02 10:12:00,17.0,10.0,-100.00,West,270,7.0,13.0,72,0.00,,,-99.99,0.000000,,2013-05-02 10:12:00,
2013-05-02 10:22:00,17.0,10.0,-100.00,West,270,7.0,13.0,72,0.00,,,-99.99,0.000000,,2013-05-02 10:22:00,
2013-05-02 10:32:00,17.0,10.0,-100.00,West,270,7.0,13.0,72,0.00,,,-99.99,0.000000,,2013-05-02 10:32:00,
2013-05-02 10:40:00,18.0,10.0,-100.00,West,276,8.0,14.0,70,0.00,,,0.45,0.000000,,2013-05-02 10:40:00,
2013-05-02 11:02:00,18.0,10.0,-100.00,West,276,8.0,14.0,70,0.00,,,0.45,0.000000,,2013-05-02 11:02:00,
2013-05-02 11:11:00,18.0,10.0,-100.00,West,276,8.0,14.0,70,0.00,,,0.45,0.000000,,2013-05-02 11:11:00,
2013-05-02 11:21:00,18.0,10.0,-100.00,West,276,8.0,14.0,70,0.00,,,0.45,0.000000,,2013-05-02 11:21:00,
2013-05-02 11:32:00,18.0,10.0,-100.00,West,276,8.0,14.0,70,0.00,,,0.45,0.000000,,2013-05-02 11:32:00,
2013-05-02 11:40:00,17.0,8.0,-100.00,SSW,204,7.0,14.0,68,0.00,,,0.45,0.000000,,2013-05-02 11:40:00,
2013-05-02 12:01:00,17.0,8.0,-100.00,SSW,204,7.0,14.0,68,0.00,,,0.45,0.000000,,2013-05-02 12:01:00,
2013-05-02 12:11:00,17.0,8.0,-100.00,SSW,204,7.0,14.0,68,0.00,,,0.45,0.000000,,2013-05-02 12:11:00,
2013-05-02 12:21:00,17.0,8.0,-100.00,SSW,204,7.0,14.0,68,0.00,,,0.45,0.000000,,2013-05-02 12:21:00,
2013-05-02 12:32:00,17.0,8.0,-100.00,SSW,204,7.0,14.0,68,0.00,,,0.45,0.000000,,2013-05-02 12:32:00,
2013-05-02 12:40:00,19.0,9.0,-100.00,SSW,207,5.0,10.0,64,0.00,,,0.45,15.000000,,2013-05-02 12:40:00,
2013-05-02 13:01:00,19.0,9.0,-100.00,SSW,207,5.0,10.0,64,0.00,,,0.45,15.000000,,2013-05-02 13:01:00,
2013-05-02 13:11:00,19.0,9.0,-100.00,SSW,207,5.0,10.0,64,0.00,,,0.45,15.000000,,2013-05-02 13:11:00,
2013-05-02 13:21:00,19.0,9.0,-100.00,SSW,207,5.0,10.0,64,0.00,,,0.45,15.000000,,2013-05-02 13:21:00,
2013-05-02 13:31:00,19.0,9.0,-100.00,SSW,207,5.0,10.0,64,0.00,,,0.45,15.000000,,2013-05-02 13:31:00,
2013-05-02 14:02:00,32.0,10.0,-100.00,NW,311,1.0,6.0,40,0.00,,,0.45,187.000000,,2013-05-02 14:02:00,
2013-05-02 15:02:00,35.0,13.0,-100.00,West,259,4.0,9.0,39,-99.99,,,0.45,410.000000,,2013-05-02 15:02:00,
2013-05-02 16:02:00,41.0,15.0,-100.00,WNW,287,2.0,9.0,35,-99.99,,,0.45,634.000000,,2013-05-02 16:02:00,
2013-05-02 17:02:00,43.0,15.0,-100.00,ENE,58,3.0,8.0,32,-99.99,,,0.45,833.000000,,2013-05-02 17:02:00,
2013-05-02 18:01:00,45.0,12.0,-100.00,SW,215,3.0,10.0,26,-99.99,,,0.44,988.000000,,2013-05-02 18:01:00,
2013-05-02 18:11:00,45.0,12.0,-100.00,SW,215,3.0,10.0,26,-99.99,,,0.44,988.000000,,2013-05-02 18:11:00,
2013-05-02 18:21:00,45.0,12.0,-100.00,SW,215,3.0,10.0,26,-99.99,,,0.44,988.000000,,2013-05-02 18:21:00,
2013-05-02 18:31:00,45.0,12.0,-100.00,SW,215,3.0,10.0,26,-99.99,,,0.44,988.000000,,2013-05-02 18:31:00,
2013-05-02 19:01:00,48.0,17.0,-100.00,North,4,2.0,10.0,29,-99.99,,,0.42,1086.000000,,2013-05-02 19:01:00,
2013-05-02 20:02:00,50.0,17.0,-100.00,ENE,66,3.0,10.0,27,-99.99,,,0.30,1123.000000,,2013-05-02 20:02:00,
2013-05-02 20:40:00,49.0,16.0,-100.00,SSE,164,4.0,11.0,26,-99.99,,,0.06,1098.000000,,2013-05-02 20:40:00,
2013-05-02 21:01:00,49.0,16.0,-100.00,SSE,164,4.0,11.0,26,-99.99,,,0.06,1098.000000,,2013-05-02 21:01:00,
2013-05-02 21:40:00,47.0,17.0,-100.00,ENE,76,4.0,9.0,30,0.00,,,0.00,1009.000000,,2013-05-02 21:40:00,
2013-05-02 22:02:00,47.0,17.0,-100.00,ENE,76,4.0,9.0,30,0.00,,,0.00,1009.000000,,2013-05-02 22:02:00,
2013-05-02 22:12:00,47.0,17.0,-100.00,ENE,76,4.0,9.0,30,0.00,,,0.00,1009.000000,,2013-05-02 22:12:00,
2013-05-02 22:22:00,47.0,17.0,-100.00,ENE,76,4.0,9.0,30,0.00,,,0.00,1009.000000,,2013-05-02 22:22:00,
2013-05-02 22:32:00,47.0,17.0,-100.00,ENE,76,4.0,9.0,30,0.00,,,0.00,1009.000000,,2013-05-02 22:32:00,
2013-05-02 22:40:00,51.0,17.0,-100.00,NNW,331,4.0,9.0,26,0.00,,,0.00,833.000000,,2013-05-02 22:40:00,
2013-05-02 23:02:00,51.0,17.0,-100.00,NNW,331,4.0,9.0,26,0.00,,,0.00,833.000000,,2013-05-02 23:02:00,
2013-05-02 23:11:00,51.0,17.0,-100.00,NNW,331,4.0,9.0,26,0.00,,,0.00,833.000000,,2013-05-02 23:11:00,
2013-05-02 23:22:00,51.0,17.0,-100.00,NNW,331,4.0,9.0,26,0.00,,,0.00,833.000000,,2013-05-02 23:22:00,
2013-05-02 23:31:00,51.0,17.0,-100.00,NNW,331,4.0,9.0,26,0.00,,,0.00,833.000000,,2013-05-02 23:31:00,
2013-05-02 23:40:00,51.0,15.0,-100.00,NW,323,3.0,12.0,23,0.00,,,0.00,673.000000,,2013-05-02 23:40:00,